Weather History for Brenham, TX

Change the Weather History Date:

Thursday, April 4, 2013

  Actual Average (KCLL) Record (KCLL)
Temperature  
Mean Temperature 53 °F 66 °F  
Max Temperature 56 °F 76 °F 90 °F (1918)
Min Temperature 50 °F 55 °F 37 °F (1987)
Degree Days  
Heating Degree Days 12 3  
Month to date heating degree days 12  
Since 1 July heating degree days 1571  
Cooling Degree Days 0 3  
Month to date cooling degree days 12  
Year to date cooling degree days 99  
Growing Degree Days 3 (Base 50)    
Moisture  
Dew Point 46 °F    
Average Humidity 78    
Maximum Humidity 91    
Minimum Humidity 63    
Precipitation  
Precipitation 0.00 in 0.08 in 3.00 in (1934)
Month to date precipitation 0.33  
Year to date precipitation 9.59  
Sea Level Pressure  
Sea Level Pressure 30.15 in    
Wind  
Wind Speed 10 mph (NNW)    
Max Wind Speed 20 mph    
Max Gust Speed 25 mph    
Visibility 8 miles    
Events Rain    
T = Trace of Precipitation, MM = Missing Value Source: NWS Daily Summary

Daily Weather History Graph

Daily Weather History Graph

Search for Another Location

Airport:

Trip Planner

Search our weather history database for the weather conditions in past years. The results will help you decide how hot, cold, wet, or windy it might be!

Date:

Astronomy

Apr. 04, 2013 Rise Set
Actual Time 7:10 AM CDT 7:46 PM CDT
Civil Twilight 6:46 AM CDT 8:10 PM CDT
Nautical Twilight 6:18 AM CDT 8:39 PM CDT
Astronomical Twilight 5:49 AM CDT 9:08 PM CDT
Moon 3:14 AM CDT (4/4) 2:28 PM CDT (4/4)
Length of Visible Light 13h 23m
Length of Day
12h 35m
Waning Crescent, 33% of the Moon is Illuminated
Apr 4
Waning Crescent
Apr 10
New
Apr 18
First Quarter
Apr 25
Full
May 2
Last Quarter

Hourly Weather History & Observations

Time (CDT) Temp. Dew Point Humidity Pressure Visibility Wind Dir Wind Speed Gust Speed Precip Events Conditions
12:15 AM 53.6 °F 49.8 °F 87% 30.12 in 7.0 mi NNW 6.9 mph - N/A   Overcast
12:35 AM 53.6 °F 50.0 °F 88% 30.13 in 7.0 mi NW 6.9 mph - N/A   Overcast
12:55 AM 53.2 °F 50.0 °F 89% 30.13 in 7.0 mi NNW 6.9 mph - N/A   Overcast
1:15 AM 53.1 °F 50.0 °F 89% 30.11 in 4.0 mi NNW 5.8 mph - N/A   Overcast
1:35 AM 52.9 °F 50.0 °F 90% 30.11 in 5.0 mi NNW 6.9 mph - N/A   Overcast
1:55 AM 52.9 °F 50.0 °F 90% 30.10 in 4.0 mi NNW 8.1 mph - N/A   Overcast
2:15 AM 52.9 °F 50.0 °F 90% 30.10 in 7.0 mi NNW 6.9 mph - N/A   Overcast
2:35 AM 52.9 °F 50.0 °F 90% 30.09 in 4.0 mi NNW 6.9 mph - N/A   Overcast
2:55 AM 52.3 °F 49.6 °F 91% 30.09 in 2.5 mi North 9.2 mph - N/A   Overcast
3:15 AM 52.3 °F 49.5 °F 90% 30.08 in 5.0 mi NNW 8.1 mph - N/A   Overcast
3:35 AM 52.7 °F 49.6 °F 89% 30.08 in 5.0 mi NNW 8.1 mph - N/A   Overcast
3:55 AM 52.3 °F 49.5 °F 90% 30.07 in 4.0 mi North 9.2 mph - N/A   Overcast
4:15 AM 52.0 °F 49.1 °F 90% 30.07 in 5.0 mi North 9.2 mph - N/A   Overcast
4:35 AM 51.8 °F 48.7 °F 89% 30.08 in 5.0 mi NNW 9.2 mph - N/A   Overcast
4:55 AM 52.0 °F 49.1 °F 90% 30.08 in 5.0 mi NNW 9.2 mph - N/A   Overcast
5:15 AM 52.0 °F 48.6 °F 88% 30.08 in 5.0 mi NNW 8.1 mph - N/A   Overcast
5:35 AM 51.8 °F 48.6 °F 89% 30.09 in 2.5 mi NNW 8.1 mph - N/A   Overcast
5:55 AM 51.8 °F 48.7 °F 89% 30.09 in 2.0 mi NW 10.4 mph - N/A   Light Drizzle
6:15 AM 51.8 °F 49.1 °F 90% 30.10 in 5.0 mi NNW 9.2 mph 16.1 mph N/A   Overcast
6:35 AM 51.8 °F 48.7 °F 89% 30.10 in 7.0 mi NNW 10.4 mph - N/A   Overcast
6:55 AM 51.8 °F 48.4 °F 88% 30.12 in 10.0 mi NNW 8.1 mph - N/A   Overcast
7:15 AM 51.4 °F 48.0 °F 88% 30.12 in 4.0 mi NNW 9.2 mph - N/A   Overcast
7:35 AM 51.4 °F 48.2 °F 89% 30.13 in 5.0 mi NNW 10.4 mph - N/A   Overcast
7:55 AM 51.3 °F 48.0 °F 89% 30.13 in 4.0 mi NNW 10.4 mph - N/A   Light Drizzle
8:15 AM 50.7 °F 47.3 °F 88% 30.15 in 2.0 mi NNW 9.2 mph - N/A Rain Light Rain
8:35 AM 50.2 °F 47.3 °F 90% 30.16 in 2.0 mi NNW 9.2 mph - N/A   Drizzle
8:55 AM 50.0 °F 46.9 °F 89% 30.17 in 2.0 mi NNW 8.1 mph - N/A   Light Drizzle
9:15 AM 50.0 °F 47.3 °F 90% 30.17 in 2.0 mi NNW 10.4 mph - N/A   Drizzle
9:35 AM 50.4 °F 47.5 °F 90% 30.18 in 2.0 mi NW 16.1 mph 19.6 mph N/A   Drizzle
9:55 AM 50.5 °F 47.7 °F 90% 30.19 in 4.0 mi NW 13.8 mph 17.3 mph N/A   Overcast
10:15 AM 51.1 °F 47.8 °F 89% 30.19 in 10.0 mi NW 13.8 mph 19.6 mph N/A   Overcast
10:35 AM 51.4 °F 46.9 °F 85% 30.19 in 10.0 mi NNW 12.7 mph - N/A   Overcast
10:55 AM 52.0 °F 46.4 °F 81% 30.20 in 10.0 mi NW 12.7 mph - N/A   Overcast
11:35 AM 52.7 °F 46.2 °F 79% 30.20 in 10.0 mi NNW 15.0 mph 20.7 mph N/A   Overcast
11:55 AM 53.2 °F 45.3 °F 74% 30.20 in 10.0 mi NW 16.1 mph - N/A   Overcast
12:15 PM 53.8 °F 45.0 °F 72% 30.19 in 10.0 mi NNW 18.4 mph 24.2 mph N/A   Overcast
12:35 PM 55.4 °F 46.4 °F 72% 30.19 in 10.0 mi NW 19.6 mph 25.3 mph N/A   Overcast
12:55 PM 52.5 °F 44.4 °F 74% 30.20 in 10.0 mi NNW 16.1 mph 24.2 mph N/A   Overcast
1:15 PM 54.1 °F 45.3 °F 72% 30.18 in 10.0 mi NNW 13.8 mph - N/A   Overcast
1:35 PM 54.7 °F 44.8 °F 69% 30.17 in 10.0 mi NW 16.1 mph - N/A   Overcast
1:55 PM 55.4 °F 45.0 °F 68% 30.16 in 10.0 mi North 15.0 mph 23.0 mph N/A   Overcast
2:15 PM 54.9 °F 45.1 °F 70% 30.16 in 10.0 mi NNW 12.7 mph 18.4 mph N/A   Overcast
2:35 PM 55.6 °F 44.4 °F 66% 30.15 in 10.0 mi NNW 19.6 mph 24.2 mph N/A   Overcast
2:55 PM 55.2 °F 43.9 °F 66% 30.14 in 10.0 mi NW 17.3 mph - N/A   Overcast
3:15 PM 55.4 °F 43.9 °F 65% 30.13 in 10.0 mi NNW 13.8 mph 19.6 mph N/A   Overcast
3:35 PM 55.0 °F 43.7 °F 66% 30.13 in 10.0 mi NNW 15.0 mph 21.9 mph N/A   Overcast
3:55 PM 54.5 °F 43.3 °F 66% 30.13 in 10.0 mi NNW 12.7 mph 21.9 mph N/A   Overcast
4:15 PM 54.5 °F 43.3 °F 66% 30.13 in 10.0 mi NNW 12.7 mph - N/A   Overcast
4:35 PM 54.9 °F 43.7 °F 66% 30.13 in 10.0 mi NNW 13.8 mph 20.7 mph N/A   Overcast
4:55 PM 55.6 °F 43.7 °F 64% 30.13 in 10.0 mi North 15.0 mph 24.2 mph N/A   Overcast
5:15 PM 56.5 °F 44.1 °F 63% 30.13 in 10.0 mi NNW 16.1 mph 24.2 mph N/A   Mostly Cloudy
5:35 PM 55.0 °F 44.1 °F 67% 30.13 in 10.0 mi NNW 12.7 mph 18.4 mph N/A   Overcast
5:55 PM 54.9 °F 44.1 °F 67% 30.13 in 10.0 mi North 13.8 mph - N/A   Overcast
6:15 PM 54.5 °F 44.2 °F 68% 30.13 in 10.0 mi North 15.0 mph 18.4 mph N/A   Overcast
6:35 PM 54.5 °F 44.2 °F 68% 30.14 in 10.0 mi North 12.7 mph 19.6 mph N/A   Overcast
6:55 PM 54.0 °F 43.9 °F 69% 30.14 in 10.0 mi NNW 11.5 mph - N/A   Overcast
7:15 PM 53.8 °F 43.9 °F 69% 30.14 in 10.0 mi North 11.5 mph 17.3 mph N/A   Overcast
7:35 PM 53.6 °F 43.9 °F 70% 30.15 in 10.0 mi North 11.5 mph - N/A   Overcast
7:55 PM 53.1 °F 43.0 °F 69% 30.15 in 10.0 mi North 12.7 mph 18.4 mph N/A   Overcast
8:15 PM 52.7 °F 42.6 °F 69% 30.16 in 10.0 mi North 10.4 mph 19.6 mph N/A   Overcast
8:35 PM 52.3 °F 42.8 °F 70% 30.17 in 10.0 mi North 11.5 mph 18.4 mph N/A   Overcast
8:55 PM 52.3 °F 42.8 °F 70% 30.17 in 10.0 mi North 9.2 mph - N/A   Overcast
9:15 PM 52.2 °F 42.8 °F 70% 30.18 in 10.0 mi North 11.5 mph - N/A   Overcast
9:35 PM 52.0 °F 42.8 °F 71% 30.19 in 10.0 mi North 9.2 mph - N/A   Overcast
9:55 PM 52.0 °F 42.8 °F 71% 30.20 in 10.0 mi North 8.1 mph - N/A   Overcast
10:15 PM 52.0 °F 42.8 °F 71% 30.21 in 10.0 mi North 9.2 mph - N/A   Overcast
10:35 PM 52.0 °F 42.8 °F 71% 30.21 in 10.0 mi North 6.9 mph - N/A   Overcast
10:55 PM 52.0 °F 42.8 °F 71% 30.21 in 10.0 mi North 6.9 mph - N/A   Overcast
11:15 PM 52.2 °F 42.3 °F 69% 30.22 in 10.0 mi NNW 9.2 mph - N/A   Overcast
11:35 PM 52.0 °F 42.6 °F 70% 30.22 in 10.0 mi North 6.9 mph - N/A   Overcast
11:55 PM 52.0 °F 42.8 °F 71% 30.22 in 10.0 mi North 8.1 mph - N/A   Overcast